Location: De Har
(53.3413°N, 6.6858°E)
Time: 08:55:42
(UTC+00:00)

Cosmos 1271 Rocket - Pass Details

Date: 22 April 2026
Orbit: 423 x 449 km, 81.2° (Epoch: 15 May)

Event Time Altitude Azimuth Distance (km) Brightness Sun altitude
Exits shadow 03:02:28 15° 249° (WSW) 1,297 4.1 -10.7°
Maximum altitude 03:04:25 24° 294° (WNW) 989 3.9 -10.4°
Drops below altitude 10° 03:07:18 10° 350° (N) 1,595 5.5 -10.1°
Sets 03:09:40 0° 5° (N) 2,471 6.8 -9.8°
